| time (UTC) | temp F | wind direction | speed MPH | gust MPH | rain 1hr in | rain 24hr in | rain mn in | humidity % | barometer mb |
| 20260509023311 | 62 | 0 | 0.0 | 0.0 | 0.00 | 0.00 | 0.00 | 8 | 1008.1 |
| 20260509022057 | 62 | 0 | 0.0 | 2.0 | 0.00 | 0.00 | 0.00 | 8 | 1007.9 |
| 20260509020826 | 61 | 0 | 0.0 | 0.0 | 0.00 | 0.00 | 0.00 | 8 | 1008.2 |
| 20260509015401 | 61 | 0 | 0.0 | 0.0 | 0.00 | 0.00 | 0.00 | 8 | 1008.4 |
| 20260509014126 | 61 | 0 | 0.0 | 1.0 | 0.00 | 0.00 | 0.00 | 8 | 1008.7 |
| 20260509012746 | 61 | 0 | 0.0 | 0.0 | 0.00 | 0.00 | 0.00 | 8 | 1009.0 |
| 20260509011436 | 61 | 0 | 0.0 | 0.0 | 0.00 | 0.00 | 0.00 | 8 | 1009.0 |
| 20260509010113 | 61 | 0 | 0.0 | 0.0 | 0.00 | 0.00 | 0.00 | 8 | 1009.0 |
| 20260509004656 | 61 | 0 | 0.0 | 0.0 | 0.00 | 0.00 | 0.00 | 8 | 1009.1 |
| 20260509003332 | 62 | 0 | 0.0 | 0.0 | 0.00 | 0.00 | 0.00 | 8 | 1009.5 |
| 20260509002051 | 61 | 0 | 0.0 | 0.0 | 0.00 | 0.00 | 0.00 | 8 | 1009.5 |
| 20260509000847 | 61 | 0 | 0.0 | 0.0 | 0.00 | 0.00 | 0.00 | 8 | 1009.5 |
| 20260508235527 | 61 | 0 | 0.0 | 0.0 | 0.00 | 0.00 | 0.00 | 8 | 1009.8 |
| 20260508234143 | 61 | 0 | 0.0 | 0.0 | 0.00 | 0.00 | 0.00 | 8 | 1009.7 |
| 20260508232720 | 61 | 0 | 0.0 | 0.0 | 0.00 | 0.00 | 0.00 | 8 | 1009.7 |
| 20260508231233 | 61 | 0 | 0.0 | 0.0 | 0.00 | 0.00 | 0.00 | 8 | 1010.2 |
| 20260508225851 | 61 | 0 | 0.0 | 0.0 | 0.00 | 0.00 | 0.00 | 8 | 1010.1 |
| 20260508224511 | 61 | 0 | 0.0 | 1.0 | 0.00 | 0.00 | 0.00 | 8 | 1010.3 |
| 20260508223036 | 61 | 0 | 0.0 | 1.0 | 0.00 | 0.00 | 0.00 | 8 | 1010.1 |
| 20260508221653 | 61 | 0 | 0.0 | 1.0 | 0.00 | 0.00 | 0.00 | 8 | 1010.1 |
| 20260508220421 | 62 | 131 | 1.0 | 1.0 | 0.00 | 0.00 | 0.00 | 8 | 1010.1 |
| 20260508214946 | 62 | 0 | 0.0 | 1.0 | 0.00 | 0.00 | 0.01 | 8 | 1010.2 |
| 20260508213621 | 62 | 0 | 0.0 | 1.0 | 0.00 | 0.00 | 0.01 | 8 | 1010.3 |
| 20260508212236 | 62 | 129 | 2.0 | 2.0 | 0.00 | 0.00 | 0.01 | 8 | 1010.3 |
| 20260508210804 | 63 | 149 | 1.0 | 1.0 | 0.00 | 0.00 | 0.01 | 8 | 1010.1 |
| 20260508205501 | 63 | 0 | 0.0 | 0.0 | 0.00 | 0.00 | 0.01 | 8 | 1010.2 |
| 20260508204119 | 64 | 0 | 0.0 | 1.0 | 0.00 | 0.00 | 0.01 | 8 | 1010.1 |
| 20260508202733 | 64 | 0 | 0.0 | 0.0 | 0.00 | 0.00 | 0.01 | 8 | 1009.9 |
| 20260508201406 | 64 | 0 | 0.0 | 0.0 | 0.00 | 0.00 | 0.01 | 8 | 1009.7 |
| 20260508195955 | 64 | 0 | 0.0 | 2.0 | 0.00 | 0.00 | 0.01 | 8 | 1009.6 |
| 20260508194511 | 64 | 0 | 0.0 | 3.0 | 0.00 | 0.00 | 0.01 | 8 | 1009.5 |
| 20260508193128 | 64 | 0 | 0.0 | 3.0 | 0.00 | 0.00 | 0.01 | 8 | 1009.5 |
| 20260508191650 | 64 | 345 | 1.0 | 1.0 | 0.00 | 0.00 | 0.01 | 8 | 1009.4 |
| 20260508190301 | 65 | 306 | 2.0 | 3.0 | 0.00 | 0.00 | 0.01 | 7 | 1009.4 |
| 20260508185031 | 65 | 110 | 1.0 | 2.0 | 0.00 | 0.00 | 0.01 | 7 | 1009.2 |
| 20260508183616 | 66 | 0 | 0.0 | 2.0 | 0.00 | 0.00 | 0.01 | 7 | 1009.1 |
| 20260508182206 | 67 | 285 | 2.0 | 2.0 | 0.00 | 0.00 | 0.01 | 7 | 1009.0 |
| 20260508180938 | 68 | 0 | 0.0 | 0.0 | 0.00 | 0.00 | 0.01 | 7 | 1008.8 |
| 20260508175451 | 67 | 0 | 0.0 | 3.0 | 0.00 | 0.00 | 0.01 | 7 | 1009.0 |
| 20260508174036 | 68 | 0 | 0.0 | 3.0 | 0.00 | 0.00 | 0.01 | 7 | 1008.9 |
| 20260508172654 | 68 | 0 | 0.0 | 2.0 | 0.00 | 0.00 | 0.01 | 7 | 1008.9 |
| 20260508171247 | 68 | 0 | 0.0 | 2.0 | 0.00 | 0.00 | 0.01 | 7 | 1008.9 |
| 20260508165844 | 69 | 319 | 2.0 | 3.0 | 0.00 | 0.00 | 0.01 | 7 | 1008.9 |
| 20260508164530 | 68 | 0 | 0.0 | 0.0 | 0.00 | 0.00 | 0.01 | 7 | 1009.0 |
| 20260508163256 | 68 | 0 | 0.0 | 0.0 | 0.00 | 0.00 | 0.01 | 7 | 1009.0 |
| 20260508161843 | 69 | 0 | 0.0 | 3.0 | 0.00 | 0.00 | 0.01 | 7 | 1009.0 |
| 20260508160450 | 68 | 0 | 0.0 | 4.0 | 0.00 | 0.00 | 0.01 | 7 | 1008.7 |
| 20260508155101 | 68 | 0 | 0.0 | 3.0 | 0.00 | 0.00 | 0.01 | 7 | 1008.6 |
| 20260508153716 | 68 | 240 | 2.0 | 2.0 | 0.00 | 0.00 | 0.01 | 7 | 1008.4 |
| 20260508152341 | 67 | 230 | 3.0 | 8.0 | 0.00 | 0.00 | 0.01 | 7 | 1008.6 |
| 20260508151113 | 68 | 226 | 1.0 | 4.0 | 0.00 | 0.00 | 0.01 | 7 | 1008.7 |
| 20260508145815 | 68 | 150 | 1.0 | 6.0 | 0.00 | 0.00 | 0.01 | 7 | 1008.7 |
| 20260508143055 | 67 | 187 | 4.0 | 6.0 | 0.00 | 0.00 | 0.01 | 7 | 1009.3 |
| 20260508141801 | 67 | 187 | 4.0 | 6.0 | 0.00 | 0.00 | 0.01 | 7 | 1009.3 |
| 20260508140502 | 67 | 0 | 0.0 | 4.0 | 0.00 | 0.00 | 0.01 | 7 | 1009.4 |
| 20260508135221 | 67 | 177 | 1.0 | 1.0 | 0.00 | 0.00 | 0.01 | 7 | 1009.5 |
| 20260508133749 | 67 | 195 | 4.0 | 7.0 | 0.00 | 0.00 | 0.01 | 7 | 1009.6 |
| 20260508132548 | 67 | 226 | 6.0 | 11.0 | 0.00 | 0.00 | 0.01 | 7 | 1009.9 |
| 20260508131244 | 70 | 0 | 0.0 | 4.0 | 0.00 | 0.00 | 0.01 | 6 | 1009.8 |
| 20260508130001 | 68 | 210 | 1.0 | 2.0 | 0.00 | 0.00 | 0.01 | 7 | 1009.9 |
| 20260508124800 | 68 | 210 | 1.0 | 2.0 | 0.00 | 0.00 | 0.01 | 7 | 1009.9 |
| 20260508123500 | 69 | 165 | 2.0 | 7.0 | 0.00 | 0.00 | 0.01 | 6 | 1010.0 |
| 20260508122011 | 69 | 193 | 2.0 | 3.0 | 0.00 | 0.00 | 0.01 | 7 | 1010.0 |
| 20260508120719 | 67 | 0 | 0.0 | 4.0 | 0.00 | 0.00 | 0.01 | 7 | 1010.1 |
| 20260508115446 | 65 | 236 | 1.0 | 2.0 | 0.00 | 0.00 | 0.01 | 7 | 1010.3 |
| 20260508114048 | 65 | 131 | 1.0 | 3.0 | 0.00 | 0.00 | 0.01 | 7 | 1010.3 |
| 20260508112555 | 64 | 0 | 0.0 | 3.0 | 0.00 | 0.00 | 0.01 | 7 | 1010.4 |
| 20260508111335 | 64 | 0 | 0.0 | 6.0 | 0.00 | 0.00 | 0.01 | 7 | 1010.0 |
| 20260508110047 | 63 | 214 | 2.0 | 6.0 | 0.00 | 0.00 | 0.01 | 7 | 1009.5 |
| 20260508105709 | 63 | 214 | 2.0 | 6.0 | 0.00 | 0.00 | 0.01 | 7 | 1009.5 |
| 20260508104500 | 64 | 204 | 1.0 | 4.0 | 0.00 | 0.00 | 0.01 | 7 | 1010.4 |
| 20260508103032 | 64 | 0 | 0.0 | 0.0 | 0.00 | 0.00 | 0.01 | 7 | 1010.4 |
| 20260508101548 | 64 | 0 | 0.0 | 1.0 | 0.00 | 0.00 | 0.01 | 7 | 1010.7 |
| 20260508100240 | 64 | 0 | 0.0 | 1.0 | 0.00 | 0.00 | 0.01 | 7 | 1010.7 |
| 20260508095021 | 64 | 0 | 0.0 | 0.0 | 0.00 | 0.00 | 0.01 | 7 | 1010.6 |
| 20260508093652 | 64 | 223 | 4.0 | 4.0 | 0.00 | 0.00 | 0.01 | 7 | 1010.4 |
| 20260508092235 | 64 | 198 | 2.0 | 4.0 | 0.00 | 0.00 | 0.01 | 7 | 1010.0 |
| 20260508090825 | 64 | 0 | 0.0 | 1.0 | 0.00 | 0.00 | 0.01 | 7 | 1010.4 |
| 20260508085335 | 65 | 0 | 0.0 | 1.0 | 0.00 | 0.00 | 0.01 | 7 | 1010.4 |
| 20260508084115 | 64 | 0 | 0.0 | 0.0 | 0.00 | 0.00 | 0.01 | 7 | 1010.2 |
| 20260508082836 | 62 | 0 | 0.0 | 0.0 | 0.00 | 0.00 | 0.01 | 8 | 1009.9 |
| 20260508081625 | 62 | 0 | 0.0 | 0.0 | 0.00 | 0.00 | 0.01 | 8 | 1009.9 |
| 20260508080239 | 61 | 0 | 0.0 | 0.0 | 0.00 | 0.00 | 0.01 | 8 | 1010.0 |
| 20260508074740 | 60 | 0 | 0.0 | 1.0 | 0.00 | 0.00 | 0.01 | 8 | 1009.8 |
| 20260508073304 | 60 | 0 | 0.0 | 0.0 | 0.01 | 0.00 | 0.01 | 8 | 1009.8 |
| 20260508071816 | 60 | 0 | 0.0 | 1.0 | 0.01 | 0.00 | 0.01 | 8 | 1009.9 |
| 20260508070539 | 58 | 171 | 1.0 | 1.0 | 0.01 | 0.00 | 0.01 | 8 | 1009.7 |
| 20260508065315 | 58 | 0 | 0.0 | 0.0 | 0.00 | 0.00 | 0.00 | 8 | 1009.7 |
| 20260508064020 | 57 | 0 | 0.0 | 0.0 | 0.00 | 0.00 | 0.00 | 8 | 1009.6 |
| 20260508062620 | 57 | 111 | 3.0 | 3.0 | 0.00 | 0.00 | 0.00 | 8 | 1009.1 |
| 20260508061320 | 57 | 130 | 1.0 | 3.0 | 0.00 | 0.00 | 0.00 | 8 | 1009.2 |
| 20260508055930 | 0 | 0 | 0.0 | 0.0 | 0.00 | 0.00 | 0.00 | 100 | 1009.4 |
| 20260508054730 | 0 | 0 | 0.0 | 0.0 | 0.00 | 0.00 | 0.00 | 100 | 1009.4 |
| 20260508053415 | 0 | 0 | 0.0 | 0.0 | 0.00 | 0.00 | 0.00 | 100 | 1009.0 |
| 20260508051920 | 0 | 0 | 0.0 | 0.0 | 0.00 | 0.00 | 0.00 | 100 | 1008.7 |
| 20260508050700 | 0 | 0 | 0.0 | 0.0 | 0.00 | 0.00 | 0.00 | 100 | 1008.6 |
| 20260508045405 | 0 | 0 | 0.0 | 0.0 | 0.00 | 0.00 | 0.00 | 100 | 1008.3 |
| 20260508044133 | 0 | 0 | 0.0 | 0.0 | 0.00 | 0.00 | 0.00 | 100 | 1008.4 |
| 20260508042655 | 0 | 0 | 0.0 | 0.0 | 0.00 | 0.00 | 0.00 | 100 | 1008.2 |
| 20260508041355 | 0 | 0 | 0.0 | 0.0 | 0.00 | 0.00 | 0.00 | 100 | 1008.2 |
| 20260508035940 | 0 | 0 | 0.0 | 0.0 | 0.00 | 0.00 | 0.00 | 100 | 1008.4 |
| 20260508034603 | 0 | 0 | 0.0 | 0.0 | 0.00 | 0.00 | 0.00 | 100 | 1008.4 |
| 20260508033343 | 0 | 0 | 0.0 | 0.0 | 0.00 | 0.00 | 0.00 | 100 | 1008.3 |
| 20260508032040 | 0 | 0 | 0.0 | 0.0 | 0.00 | 0.00 | 0.00 | 100 | 1008.4 |
| 20260508030841 | 0 | 0 | 0.0 | 0.0 | 0.00 | 0.00 | 0.00 | 100 | 1008.4 |
| 20260508025508 | 0 | 0 | 0.0 | 0.0 | 0.00 | 0.00 | 0.00 | 100 | 1008.7 |